sat.trackr.live / text

‹ back to catalog

STARLINK-3866

NORAD 52500 · 2022-049BB

PAYLOAD ACTIVE UNKNOWN

§ Identity

Operator
Country
US
Launch date
2022-05-06
Launch site
AFETR
Launch vehicle
Mass (kg)
RCS (m²)

Purposes: comms

External: N2YO · Heavens-Above · Gunter

§ Orbital elements

Epoch: 2026-05-25T03:54:50.264928Z

Period
95.44 min
Inclination
53.2143°
Eccentricity
0.0001666
Mean motion
15.08849131 rev/d
Perigee alt
538.6 km
Apogee alt
540.9 km
Semi-major
6,917.9 km
B*
-8.9669e-5
RAAN
55.8154°
Arg perigee
89.9224°
Mean anomaly
270.1959°
Rev number
22,407

§ Raw data

STARLINK-38661 52500U 22049BB  26145.16308177 -.00001715  00000+0 -89669-4 0  99972 52500  53.2143  55.8154 0001666  89.9224 270.1959 15.08849131224071

JSON: /api/v1/satellites/52500 · /tle

For live sub-satellite position, see the globe view (requires WebGL).

§ Visibility from observer

Set your observer location to see the next 7 days of passes ≥ 10°. The values pass through the URL so the page stays shareable.

No JS? Fill the form by hand. The geolocation button needs JavaScript.